COSMOS 2436 (723)

Last updated on Aug. 14, 2020, 5:31 a.m. UTC

1 32395U 07065C   20226.16970183  .00000068  00000-0  10000-3 0  9995
2 32395  64.5623 264.5262 0013075 351.6129  11.7000  2.13103023 98269
UTC
Height (km)
Latitude
Longitude
Inclination
Orbital Period
UTC large
Height (km)
Speed (km/s)
/
Latitude / Longitude
Inclination (degrees)
Orbital Period (minutes)
Azimuth
Elevation
Range (km)
Doppler Factor
iOS Compass Heading
iOS Angle

Next 30 passes for location: Hong Kong

Rise time Rise Azimuth (degrees) Set time Set Azimuth (degrees) Duration Max altitude (degrees)

No matching passes for this satellites